#timestamp,LO_Frequency,Hit 
1499666415.1,286047034.3,N
1499666416.0,286047034.3,N
1499666435.8,286047034.6,N
1499666455.6,286047034.8,N
1499666475.5,286047033.9,N
1499666495.3,286047033.6,N
1499666515.1,286047033.9,N
1499666535.9,286047033.4,N
1499666555.7,286047031.7,N
1499666575.5,286047034.8,N
1499666595.4,286047034.3,N
1499666615.2,286047032.4,N
1499666635.0,286047032.8,N
1499666635.9,286047032.8,N
1499666655.8,286047031.9,N
1499666675.6,286047036.2,N
1499666695.4,286047037.9,N
1499666715.2,286047037.6,N
1499666735.1,286047035.1,N
1499666736.0,286047035.1,N
1499666755.8,286047031.8,N
1499666775.6,286047035.9,N
1499666795.5,286047035.0,N
1499666815.3,286047036.3,N
1499666835.1,286047035.8,N
1499666855.9,286047033.8,N
1499666875.7,286047034.5,N
1499666895.5,286047034.7,N
1499666915.4,286047034.7,N
1499666935.2,286047034.5,N
1499666955.0,286047034.7,N
1499666955.9,286047034.7,N
1499666975.8,286047031.9,N
1499666995.6,286047032.2,N
1499667015.4,286047032.4,N
1499667035.3,286047030.2,N
1499667055.1,286047032.6,N
1499667056.0,286047032.6,N
1499667075.8,286047031.7,N
1499667095.7,286047032.6,N
1499667115.5,286047030.1,N
1499667135.3,286047030.3,N
1499667155.1,286047033.2,N
1499667175.9,286047032.9,N
1499667195.7,286047033.2,N
1499667215.5,286047033.1,N
1499667235.4,286047030.8,N
1499667255.2,286047031.6,N
1499667275.0,286047030.4,N
1499667275.9,286047030.4,N
1499667295.8,286047030.3,N
1499667315.6,286047031.3,N
1499667335.4,286047030.2,N
1499667355.3,286047032.7,N
1499667375.1,286047030.2,N
1499667376.0,286047030.2,N
1499667395.8,286047034.7,N
1499667415.7,286047032.9,N
1499667435.5,286047030.3,N
1499667455.3,286047031.0,N
1499667475.2,286047030.3,N
1499667495.9,286047030.6,N
1499667515.7,286047030.3,N
1499667535.5,286047031.6,N
1499667555.4,286047031.1,N
1499667575.2,286047030.1,N
1499667595.0,286047030.2,N
1499667596.0,286047030.2,N
1499667615.8,286047033.1,N
1499667635.6,286047033.0,N
1499667655.4,286047033.2,N
1499667675.3,286047030.5,N
1499667695.1,286047032.9,N
1499667715.8,286047032.0,N
1499667735.7,286047032.9,N
1499667755.5,286047033.1,N
1499667775.3,286047032.6,N
1499667795.2,286047032.3,N
1499667815.9,286047034.7,N
1499667835.7,286047034.1,N
1499667855.6,286047032.6,N
1499667875.4,286047032.9,N
1499667895.2,286047034.8,N
1499667915.0,286047032.5,N
1499667916.0,286047032.5,N
1499667935.8,286047033.0,N
1499667955.6,286047032.6,N
1499667975.4,286047030.3,N
1499667995.3,286047032.8,N
1499668015.1,286047030.9,N
1499668035.8,286047031.6,N
1499668055.7,286047031.2,N
1499668075.5,286047028.6,N
1499668095.3,286047028.6,N
1499668115.2,286047031.1,N
1499668135.9,286047033.1,N
1499668155.7,286047030.6,N
1499668175.6,286047031.8,N
1499668195.4,286047031.9,N
1499668215.2,286047032.5,N
1499668235.0,286047033.1,N
1499668236.0,286047033.1,N
1499668255.8,286047032.6,N
1499668275.6,286047030.2,N
1499668295.4,286047030.6,N
1499668315.3,286047030.8,N
1499668335.1,286047030.5,N
1499668355.8,286047032.7,N
1499668375.7,286047030.4,N
1499668395.5,286047031.2,N
1499668415.3,286047029.0,N
1499668435.2,286047030.7,N
1499668455.9,286047033.2,N
1499668475.7,286047033.1,N
1499668495.6,286047031.3,N
1499668515.4,286047030.4,N
1499668535.2,286047032.4,N
1499668555.0,286047031.7,N
1499668556.0,286047031.7,N
1499668575.8,286047033.0,N
1499668595.6,286047032.9,N
1499668615.4,286047032.0,N
1499668635.3,286047033.6,N
1499668655.1,286047031.8,N
1499668675.8,286047031.9,N
1499668695.7,286047033.2,N
1499668715.5,286047030.3,N
1499668735.3,286047031.2,N
1499668755.2,286047031.2,N
1499668775.9,286047030.8,N
1499668795.7,286047030.2,N
1499668815.6,286047033.1,N
1499668835.4,286047030.9,N
1499668855.2,286047028.6,N
1499668875.0,286047030.0,N
1499668876.0,286047030.0,N
1499668895.8,286047029.2,N
1499668915.6,286047030.8,N
1499668935.4,286047030.7,N
1499668955.3,286047032.8,N
1499668975.1,286047030.2,N
1499668995.8,286047030.7,N
1499669015.7,286047028.5,N
1499669035.5,286047030.3,N
1499669055.3,286047031.3,N
1499669075.2,286047031.6,N
1499669095.9,286047031.5,N
1499669115.7,286047031.3,N
1499669135.6,286047031.6,N
1499669155.4,286047030.9,N
1499669175.2,286047030.5,N
1499669195.1,286047030.8,N
1499669196.0,286047030.8,N
1499669215.8,286047031.2,N
1499669235.6,286047031.0,N
1499669255.5,286047032.6,N
1499669275.3,286047030.5,N
1499669295.1,286047031.3,N
1499669315.8,286047029.0,N
1499669335.7,286047029.7,N
1499669355.5,286047026.9,N
1499669375.3,286047029.2,N
1499669395.2,286047031.1,N
1499669415.0,286047031.4,N
1499669415.9,286047031.4,N
1499669435.7,286047030.7,N
1499669455.6,286047030.2,N
1499669475.4,286047031.0,N
1499669495.2,286047028.9,N
1499669515.1,286047030.4,N
1499669516.0,286047030.4,N
1499669535.8,286047030.6,N
1499669555.6,286047028.8,N
1499669575.5,286047031.6,N
1499669595.3,286047033.1,N
1499669615.1,286047030.6,N
1499669635.9,286047032.7,N
1499669655.7,286047032.9,N
1499669675.5,286047030.1,N
1499669695.4,286047031.6,N
1499669715.2,286047031.0,N
1499669735.0,286047031.3,N
1499669735.9,286047031.3,N
1499669755.8,286047031.2,N
1499669775.6,286047031.5,N
1499669795.4,286047028.5,N
1499669815.2,286047031.3,N
1499669835.1,286047031.0,N
1499669836.0,286047031.0,N
1499669855.8,286047029.2,N
1499669875.6,286047029.8,N
1499669895.5,286047029.9,N
1499669915.3,286047026.9,N
1499669935.1,286047029.1,N
1499669955.9,286047027.0,N
1499669975.7,286047027.1,N
1499669995.5,286047031.5,N
